Regional Weather Roundup
Issued by NWS Green Bay, WI

Home | Current Version | Previous Version | Text Only | Print | Product List | Glossary On
Versions: 1 2 3 4 5 6 7 8 9 10 11 12 13 14 15 16 17 18 19 20 21 22 23 24 25 26 27 28 29 30 31 32 33 34 35 36 37 38 39 40 41 42 43 44 45 46 47 48 49 50
000
ASUS43 KGRB 181300
RWRGRB

NORTH-CENTRAL AND NORTHEAST WISCONSIN REGIONAL WEATHER ROUNDUP
NATIONAL WEATHER SERVICE GREEN BAY WI
800 AM CDT WED OCT 18 2017

WIZ005-009-010>012-018-019-181400-
NORTH CENTRAL WISCONSIN

CITY           SKY/WX    TMP DP  RH WIND       PRES   REMARKS
IRONWOOD       CLEAR     53  44  71 S8G18     29.80F
MANITOWISH WTR NOT AVBL
ARBOR VITAE    NOT AVBL
EAGLE RIVER    NOT AVBL
LAND O LAKES   NOT AVBL
RHINELANDER    CLEAR     50  44  80 SW8       29.91F
PHILLIPS       CLEAR     47  44  87 S8        29.87F
ANTIGO         NOT AVBL
TOMAHAWK       NOT AVBL
MERRILL        CLEAR     49  44  81 S5        29.94S
$$

WIZ013-073-181400-
NORTHEAST WISCONSIN

CITY           SKY/WX    TMP DP  RH WIND       PRES   REMARKS
IRON MOUNTAIN  CLEAR     46  41  82 SE6       29.92F
MARINETTE      PTCLDY    53  45  74 SW12      29.98F
$$

WIZ017-030-035>037-045-181400-
CENTRAL WISCONSIN

CITY           SKY/WX    TMP DP  RH WIND       PRES   REMARKS
MEDFORD        NOT AVBL
WAUSAU         CLEAR     49  44  83 S10       29.94F
MOSINEE        CLEAR     46  45  93 S8        29.97F
MARSHFIELD     CLEAR     46  42  86 S7        29.94F
WISC RAPIDS    CLEAR     50  43  77 S7        29.97F
STEVENS POINT  NOT AVBL
WAUPACA        NOT AVBL
SHAWANO        CLEAR     50  44  78 SW3       29.98S
CLINTONVILLE   NOT AVBL
WAUTOMA        CLEAR     39  38  96 CALM      30.01F
$$

WIZ038-039-048-051-181400-
FOX VALLEY

CITY           SKY/WX    TMP DP  RH WIND       PRES   REMARKS
NWS GREEN BAY  CLEAR     51  47  86 S8        30.01S
APPLETON       CLEAR     48  39  71 S9        30.00F
OSHKOSH        CLEAR     50  43  77 S12       30.02S
FOND DU LAC    CLEAR     52  40  63 S12G17    30.05R
$$

WIZ022-050-052-181400-
EAST CENTRAL WISCONSIN

CITY           SKY/WX    TMP DP  RH WIND       PRES   REMARKS
EPHRAIM        FAIR      50  43  76 S6        29.99S
WASHINGTON ISL NOT AVBL
STURGEON BAY   CLEAR     51  43  74 S12       30.01F
MANITOWOC      CLEAR     50  44  80 S8        30.05S
SHEBOYGAN      CLEAR     47  44  90 S7        30.06S
$$

LMZ563-521-522-541>543-181400-
LAKESHORE

STATION/POSITION TIME  TEMP    WIND        PRES    VSBY  WAVE
                       AIR SEA DIR/SP/G                  HT/PER
                 (UTC) (F)     (DEG/KT/KT) (MB)    (MI)  (FT/S)
SHEBOYGAN LKSHOR 1200   53     200/ 12/ 14 1017.8R
KEWAUNEE LKSHORE 1230   53     190/ 12/ 14 1016.2S
NORTHPORT PIER   1240   54     170/  6/  9 1015.6S
N MID LAKE BUOY  1150   60 59  200/ 19/ 21 1016.3S         5/ 6
S GREEN BAY BUOY 1200   57 58  200/ 16/ 19 1015.6
SISTER BAY LKSHO 1204   52     170/  9/ 10   N/A
MENOMINEE LKSHOR 1224   55     200/  9/ 12 1015.1
$$




USA.gov is the U.S. government's official web portal to all federal, state and local government web resources and services.